Regional Weather Roundup
Issued by NWS

Home | Current Version | Previous Version | Text Only | Print | Product List | Glossary On
Versions: 1 2 3 4 5 6 7 8 9 10 11 12 13 14 15 16 17 18 19 20 21 22 23 24 25 26 27 28 29 30 31 32 33 34 35 36 37 38 39 40 41 42 43 44 45 46 47 48 49 50
000
ASUS42 KFFC 231803
RWRGA
WEATHER ROUNDUP FOR GEORGIA
NATIONAL WEATHER SERVICE PEACHTREE CITY GA
200 PM EDT TUE SEP 23 2014

NOTE: "FAIR" INDICATES FEW OR NO CLOUDS BELOW 12,000 FEET WITH NO
SIGNIFICANT WEATHER AND/OR OBSTRUCTIONS TO VISIBILITY.

* = USE WITH CAUTION. THE STATIONS MARKED WITH AN ASTERISK MAY NOT
REPORT WEATHER SUCH AS PRECIPITATION, FOG, OR THUNDER AND ARE NOT
QUALITY CONTROLLED BY NWS.

THE REMARK "TC" DENOTES TEMPERATURE READING IN DEGREES CELSIUS.

GAZ001>058-231900-
NORTH GEORGIA

CITY           SKY/WX    TMP DP  RH WIND       PRES   REMARKS
ATLANTA        PTSUNNY   75  56  51 NE15      30.21F
6HR MIN TEMP:  62; 6HR MAX TEMP:  75;

ATHENS         PTSUNNY   72  55  55 NE9G16    30.23S
6HR MIN TEMP:  59; 6HR MAX TEMP:  75;

CHAMBLEE       MOSUNNY   75  55  49 E9        30.22F
6HR MIN TEMP:  62; 6HR MAX TEMP:  75;

PEACHTREE CITY MOSUNNY   77  58  51 E12       30.20F
6HR MIN TEMP:  56; 6HR MAX TEMP:  77;

ROME           SUNNY     80  55  42 E9        30.21F
6HR MIN TEMP:  54; 6HR MAX TEMP:  80;

WEST ATLANTA   MOSUNNY   76  55  48 E13       30.21F
6HR MIN TEMP:  56; 6HR MAX TEMP:  76;

GAINESVILLE    MOSUNNY   73  54  51 E14       30.26S
6HR MIN TEMP:  59; 6HR MAX TEMP:  74;

CARTERSVILLE   SUNNY     77  54  44 NE12G18   30.21F
6HR MIN TEMP:  52; 6HR MAX TEMP:  77;



CITY           SKY/WX    TMP DP  RH WIND       PRES   REMARKS
DALTON*        SUNNY     73  57  56 CALM      30.23F
LAWRENCEVILLE* PTSUNNY   73  54  49 E9G18     30.24S
MARIETTA       MOSUNNY   75  56  51 E12G20    30.22F
KENNESAW*      MOSUNNY   73  54  49 SE12G21   30.23F
$$

GAZ059>098-102>109-231900-
CENTRAL GEORGIA

CITY           SKY/WX    TMP DP  RH WIND       PRES   REMARKS
AUGUSTA-BUSH   CLOUDY    75  62  64 E12       30.19S
6HR MIN TEMP:  64; 6HR MAX TEMP:  76;

AUGUSTA-DANIEL MOSUNNY   75  61  61 E10       30.20F
6HR MIN TEMP:  65; 6HR MAX TEMP:  76;

COLUMBUS       MOSUNNY   77  59  53 E12       30.15F
6HR MIN TEMP:  63; 6HR MAX TEMP:  77;

MACON          CLOUDY    72  63  73 E7        30.17F
6HR MIN TEMP:  63; 6HR MAX TEMP:  73;

ROBINS AFB     PTSUNNY   74  64  69 NE7       30.17F


CITY           SKY/WX    TMP DP  RH WIND       PRES   REMARKS
LAGRANGE*      SUNNY     80  62  55 E10G18    30.18S
SYLVANIA*      PTSUNNY   77  71  80 NE10G18   30.17F
$$

GAZ099>101-110>166-231900-
SOUTH GEORGIA

CITY           SKY/WX    TMP DP  RH WIND       PRES   REMARKS
SAVANNAH       PTSUNNY   79  66  64 NE12      30.13F
6HR MIN TEMP:  68; 6HR MAX TEMP:  79; 6HR PCP:  0.01;

VALDOSTA       MOSUNNY   82  63  52 E12       30.08F
6HR MIN TEMP:  67; 6HR MAX TEMP:  83;

ALMA           MOSUNNY   82  60  47 NE9       30.10F
6HR MIN TEMP:  65; 6HR MAX TEMP:  83;

ST SIMONS      CLOUDY    75  68  78 NE12      30.08F
6HR MIN TEMP:  67; 6HR MAX TEMP:  76; 6HR PCP:  0.09;

FT STEWART     PTSUNNY   78  64  60 NE12      30.10F
ALBANY         CLOUDY    76  64  66 NE7       30.15F
HUNTER AFB     MOSUNNY   76  66  71 N9        30.10F
MOODY AFB      SUNNY     81  61  49 E9G21     30.09F
BRUNSWICK      CLOUDY    77  68  73 NE12      30.10S


CITY           SKY/WX    TMP DP  RH WIND       PRES   REMARKS
BAINBRIDGE*    CLOUDY    81  66  61 E12G17    30.11S
MOULTRIE*      PTSUNNY   77  63  61 E7G16     30.12F
VIDALIA*       PTSUNNY   79  64  61 NE14G20   30.15F
WAYCROSS*      PTSUNNY   82  65  56 NE9G16    30.09F
DOUGLAS*       MOSUNNY   82  59  44 NE16G22   30.13F
$$


USA.gov is the U.S. government's official web portal to all federal, state and local government web resources and services.